Flag for Germany Weather past 2 weeks in Falkensee, Brandenburg, Germany

Now
52 °F

Passing clouds.


Feels Like: 47 °F
Forecast: 43 / 58 °F
Wind: 15 mph from West

Location: Berlin-Tegel

Current Time: Sep 22, 2014 at 8:24:32 AM

Latest Report: Sep 22, 2014 at 7:50 AM


Visibility: N/A

Pressure: 29.80 "Hg

Humidity: 82%

Dew point: 46 °F

Location of FalkenseeLocation

Historic Weather in Falkensee — Graph

°F

Falkensee temperature yesterday

Maximum temperature yesterday: 64 °F (at 12:20 AM)
Minimum temperature yesterday: 55 °F (at 9:20 PM)
Average temperature yesterday: 60 °F

Past Weeks' High & Low Weather Summary

 TemperatureHumidityPressure
High79 °F (Sep 7, 1:50 PM)100% (Sep 21, 3:20 AM)30.15 "Hg (Sep 21, 3:20 AM)
Low52 °F (Sep 9, 3:50 AM)38% (Sep 8, 3:50 PM)29.83 "Hg (Sep 21, 3:50 PM)
Average63 °F75%30.01 "Hg
* Reported Sep 7 7:20 AM — Sep 22 7:20 AM, Falkensee, Weather by CustomWeather, © 2014

Note: Actual official high and low records may vary slightly from our data, if they occured in-between our weather recording intervals... More about our weather records

Advertising

Falkensee weather history for previous 24 hours

 ConditionsComfort  
Time TempWeatherWind HumidityBarometerVisibility
7:20 AM
Sep 22
52 °FPassing clouds.13 mph82%29.83 "HgN/A
6:50 AM54 °FPassing clouds.13 mph77%29.83 "HgN/A
6:20 AM54 °FPartly cloudy.13 mph82%29.83 "HgN/A
5:50 AM54 °FPartly cloudy.10 mph82%29.83 "HgN/A
5:20 AM55 °FPassing clouds.13 mph77%29.83 "HgN/A
4:50 AM55 °FPartly cloudy.13 mph82%29.83 "HgN/A
4:20 AM55 °FPartly cloudy.13 mph82%29.83 "HgN/A
3:50 AM55 °FPartly cloudy.12 mph82%29.83 "HgN/A
3:20 AM55 °FLight rain. Partly cloudy.12 mph82%29.83 "HgN/A
2:50 AM54 °FPassing clouds.10 mph88%29.83 "HgN/A
2:20 AM55 °FPartly cloudy.10 mph82%29.83 "HgN/A
1:50 AM54 °FPassing clouds.12 mph88%29.83 "HgN/A
1:20 AM54 °FClear.10 mph88%29.83 "Hg10 mi
12:50 AM54 °FClear.10 mph88%29.86 "Hg10 mi
12:20 AM54 °FClear.12 mph82%29.86 "Hg10 mi
11:50 PM
Sep 21
55 °FClear.10 mph77%29.86 "Hg10 mi
11:20 PM55 °FClear.9 mph77%29.86 "Hg10 mi
10:20 PM57 °FClear.9 mph77%29.86 "Hg10 mi
9:50 PM57 °FClear.9 mph82%29.86 "Hg10 mi
9:20 PM55 °FClear.6 mph88%29.86 "Hg10 mi
8:50 PM57 °FClear.5 mph88%29.86 "Hg10 mi
8:20 PM57 °FClear.5 mph88%29.86 "Hg10 mi
7:50 PM57 °FSunny.5 mph88%29.86 "Hg10 mi
7:20 PM59 °FSunny.5 mph82%29.86 "Hg10 mi
6:50 PM59 °FSunny.6 mph82%29.86 "Hg10 mi
6:20 PM59 °FPartly sunny.7 mph82%29.86 "HgN/A
5:50 PM61 °FPartly sunny.9 mph77%29.86 "HgN/A
5:20 PM61 °FBroken clouds.13 mph77%29.86 "HgN/A
4:20 PM64 °FBroken clouds.9 mph73%29.83 "HgN/A
3:50 PM64 °FBroken clouds.7 mph78%29.83 "HgN/A
3:20 PM64 °FBroken clouds.5 mph83%29.86 "HgN/A
2:50 PM63 °FBroken clouds.6 mph88%29.86 "HgN/A
2:20 PM61 °FPartly sunny.6 mph88%29.86 "HgN/A
1:50 PM61 °FDrizzle. Partly sunny.7 mph88%29.86 "Hg5 mi
1:20 PM63 °FPartly sunny.7 mph83%29.89 "HgN/A
12:50 PM61 °FBroken clouds.8 mph94%29.89 "Hg6 mi
12:20 PM61 °FBroken clouds.7 mph88%29.86 "Hg5 mi
11:20 AM61 °FLight rain. Partly sunny.7 mph94%29.86 "Hg4 mi
10:50 AM61 °FFog.6 mph94%29.86 "Hg3 mi
10:20 AM61 °FDrizzle. Fog.9 mph94%29.89 "Hg2 mi
9:50 AM61 °FFog.8 mph100%29.86 "Hg1 mi
9:20 AM61 °FFog.6 mph94%29.86 "Hg1 mi
8:50 AM59 °FFog.5 mph100%29.86 "Hg1 mi
8:20 AM59 °FFog.6 mph100%29.86 "Hg1 mi
Weather by CustomWeather, © 2014

See weather overviewHow to use our weather pages